• Join FlightAware (Why Join?)
  • Login
  • US Flag GB Flag 
10:49 EDT


 

Airport Tracker/Info


-or-


 

Live Flight TrackerFlight Track Log ✈ EJA831 ✈ 18-Jul-2013 ✈ KPVC - KTEB

Flight Track Log - Related Links

Times and Time Zones

All times are in EDT time to prevent confusion due to time zone crossing. See the EJA831 flight status page for this flight to view local times or setup timezone preferences in your user account.

Time Position Orientation Groundspeed Altitude Reporting Facility
EDT Latitude Longitude Course Direction KTS MPH feet Rate Location/Type
17:41 42.0114 -70.3025 206° Southwest 268 308 6,900  Level Boston Center
17:42 41.9347 -70.3331 197° South 278 320 9,900 2,520 Climbing Boston Center
17:43 41.8611 -70.4025 215° Southwest 297 342 12,000 2,460 Climbing Boston Center
17:44 41.7853 -70.4744 215° Southwest 318 366 14,900 1,980 Climbing Boston Center
17:45 41.7194 -70.6974 217° Southwest  Level FlightAware Approximate
17:45 41.7050 -70.5464 214° Southwest 337 388 16,000  Level Boston Center
17:46 41.6595 -70.7715 206° Southwest  Level FlightAware Approximate
17:46 41.6458 -70.6122 220° Southwest 349 402 16,000  Level Boston Center
17:47 41.6522 -70.7675 273° West 311 358 16,000 -60 Level Boston Center
17:48 41.6667 -70.8867 279° West 320 368 15,900  Descending Boston Center
17:49 41.6806 -71.0114 279° West 338 389 16,000  Climbing Boston Center
17:50 41.6947 -71.1417 278° West 356 410 16,000 -60 Level Boston Center
17:51 41.7067 -71.2667 277° West 351 404 15,900  Descending Boston Center
17:52 41.7203 -71.3944 278° West 351 404 16,000  Climbing Boston Center
17:53 41.7714 -71.5075 301° West 345 397 16,000  Level Boston Center
17:54 41.8242 -71.6044 306° West 350 403 16,000  Level Boston Center
17:55 41.8667 -71.7319 294° West 349 402 16,000  Level Boston Center
17:56 41.8986 -71.8375 292° West 343 395 16,000  Level Boston Center
17:57 41.9367 -71.9711 291° West 350 403 16,000  Level Boston Center
17:58 41.9706 -72.0769 293° West 350 403 16,000  Level Boston Center
17:59 42.0106 -72.2111 292° West 350 403 16,000  Level Boston Center
18:00 42.0419 -72.3142 292° West 345 397 16,000  Level Boston Center
18:01 42.0817 -72.4456 292° West 345 397 16,000  Level Boston Center
18:02 42.1169 -72.5633 292° West 350 403 16,000  Level Boston Center
18:03 42.1542 -72.6836 293° West 350 403 16,000  Level Boston Center
18:04 42.1581 -72.8097 272° West 340 391 16,000  Level Boston Center
18:05 42.1492 -72.9386 265° West 345 397 16,000  Level Boston Center
18:06 42.1381 -73.0644 263° West 350 403 16,000 -540 Level Boston Center
18:07 42.1311 -73.1931 266° West 350 403 15,000 -900 Descending Boston Center
18:08 42.1219 -73.3078 264° West 350 403 14,200 -540 Descending Boston Center
18:09 42.1125 -73.4475 265° West 350 403 14,000 -120 Descending Boston Center
18:10 42.0822 -73.5589 250° West 337 388 14,000  Level Boston Center
18:11 42.0478 -73.6647 246° West 317 365 14,000  Level Boston Center
18:12 42.0197 -73.7478 246° West 311 358 14,000 -240 Level Boston Center
18:13 41.9853 -73.8478 245° Southwest 318 366 13,600 -900 Descending Boston Center
18:14 41.9417 -73.9864 247° West 313 360 12,300 -1,200 Descending Boston Center
18:15 41.9214 -74.0975 256° West 305 351 11,200 -1,140 Descending Boston Center
18:16 41.8908 -74.1886 246° West 286 329 10,100 -1,140 Descending Boston Center
18:17 41.8378 -74.2569 224° Southwest 290 334 9,000 -1,020 Descending Boston Center
18:18 41.7781 -74.3386 226° Southwest 290 334 8,100 -480 Descending Boston Center
18:19 41.7311 -74.4042 226° Southwest 290 334 8,100  Level Boston Center
18:20 41.6689 -74.4911 226° Southwest 290 334 8,100  Level Boston Center
18:21 41.6158 -74.5506 220° Southwest 290 334 8,100 -120 Level Boston Center
18:22 41.5281 -74.5697 189° South 283 326 7,900 -600 Descending Boston Center
18:23 41.4547 -74.5839 188° South 297 342 6,900 -900 Descending Boston Center
18:24 41.3667 -74.6167 196° South 274 315 6,100 -780 Descending New York TRACON
18:25 41.3000 -74.5833 159° South 293 337 5,400 -1,020 Descending New York TRACON
18:26 41.2667 -74.5000 118° Southeast 287 330 4,100 -660 Descending New York TRACON
18:27 41.2167 -74.4167 129° Southeast 253 291 4,100 -60 Level New York TRACON
18:28 41.1833 -74.3333 118° Southeast 249 287 4,000 -540 Descending New York TRACON
18:29 41.1500 -74.2667 124° Southeast 240 276 3,100 -480 Descending New York TRACON
18:30 41.1000 -74.2000 135° Southeast 232 267 3,100  Level New York TRACON
18:31 41.0667 -74.1333 124° Southeast 208 239 3,100 -480 Level New York TRACON
18:32 41.0333 -74.0667 124° Southeast 212 244 2,200 -480 Descending New York TRACON
18:33 40.9833 -74.0500 166° South 183 211 2,100 -300 Descending New York TRACON
18:34 40.9500 -74.0500 180° South 165 190 1,700 -600 Descending New York TRACON
18:35 40.9000 -74.0500 180° South 139 160 1,000 -720 Descending New York TRACON
18:37 40.8500 -74.0500 164° South  Level FlightAware Approximate
18:44 40.8501 -74.0608 164° South  Level Estimated
18:45 40.8501 -74.0608 164° South  Level Estimated